Regional Weather Roundup
Issued by NWS

Home | Current Version | Previous Version | Graphics & Text | Print | Product List | Glossary On
Versions: 1 2 3 4 5 6 7 8 9 10 11 12 13 14 15 16 17 18 19 20 21 22 23 24 25 26 27 28 29 30 31 32 33 34 35 36 37 38 39 40 41 42 43 44 45 46 47 48 49 50
000
ASUS45 KBOU 301007
RWRCO

WEATHER ROUNDUP FOR COLORADO
NATIONAL WEATHER SERVICE DENVER/BOULDER CO
400 AM MDT MON MAR 30 2015

NOTE: "FAIR" INDICATES FEW OR NO CLOUDS BELOW 12000 FEET WITH NO
SIGNIFICANT WEATHER AND/OR OBSTRUCTIONS TO VISIBILITY.

COZ001>005-013-030-031-301100-
...NORTHWEST COLORADO...

CITY           SKY/WX    TMP DP  RH WIND       PRES   REMARKS
CRAIG          PTCLDY    25  19  78 CALM      30.26R
HAYDEN         PTCLDY    34  18  51 E9        30.25S WCI  26
MEEKER         CLEAR     30  20  66 NE3       30.25S
MOUNT WERNER   NOT AVBL
STEAMBOAT SPGS PTCLDY    31  22  69 CALM      30.26S
WALDEN         PTCLDY    28  18  64 E6        30.27S WCI  22
$$

COZ006>008-011-301100-
...WEST CENTRAL VALLEYS...

CITY           SKY/WX    TMP DP  RH WIND       PRES   REMARKS
GRAND JUNCTION CLEAR     44  14  29 SE13      30.16S
MONTROSE       CLEAR     39  17  41 S8        30.24S
EAGLE          CLEAR     30  19  64 SE3       30.28F
RIFLE          CLEAR     33  16  49 SE3       30.22S
DELTA          CLEAR     43  13  30 E5        30.21S
NUCLA          MOCLDY    45  12  26 CALM      30.26S
$$

COZ017>023-064>068-301100-
...SOUTHWEST COLORADO...

CITY           SKY/WX    TMP DP  RH WIND       PRES   REMARKS
DURANGO        MOCLDY    38  18  44 E7        30.26S
CORTEZ         CLEAR     36  19  50 CALM      30.23S
PAGOSA SPRINGS MOCLDY    33  21  61 CALM      30.31S
TELLURIDE      NOT AVBL
WOLF CREEK PAS CLEAR     30   9  40 SW15      30.48S WCI  19
$$

COZ009-010-012-014-032>034-037-058>063-301100-
...CENTRAL COLORADO...

CITY           SKY/WX    TMP DP  RH WIND       PRES   REMARKS
ASPEN          CLEAR     32  15  49 S6        30.28F WCI  26
BUENA VISTA    CLEAR     27  17  65 W3        30.29F
COPPER MTN     PTCLDY    34   1  25 W17G23    30.41F WCI  23
BERTHOUD PASS  FAIR      27  19  74 W31G38    30.39F WCI  10
COTTONWOOD PAS CLEAR     41  -6  13 N3        30.33F
GUNNISON       CLEAR     27  16  63 CALM      30.36S
KREMMLING      CLEAR     27  19  74 CALM      30.31S
LEADVILLE      PTCLDY    26   5  40 NE5       30.34S WCI  20
SALIDA         CLEAR     36  21  54 NW3       30.36F
SUNLIGHT       CLEAR     36   9  32 CALM      30.42F
WILKERSON PASS CLEAR     34   1  25 W12G21    30.39F WCI  25
$$

COZ069>075-301100-
...SAN LUIS VALLEY/SANGRE DE CRISTO MOUNTAINS...

CITY           SKY/WX    TMP DP  RH WIND       PRES   REMARKS
ALAMOSA        PTCLDY    34  21  59 CALM      30.28S
LA VETA PASS   CLEAR     34  25  69 S13G21    30.34F WCI  25
SAGUACHE       CLEAR     32   9  37 NW9       30.29F WCI  24
$$

COZ035-036-038>040-301100-
...NORTHERN COLORADO FRONT RANGE...

CITY           SKY/WX    TMP DP  RH WIND       PRES   REMARKS
DENVER INTL AP CLEAR     42  25  50 SW5       30.11F
DMNS CITY PARK   N/A     42  29  60 SW3       30.11F
AURORA         PTCLDY    43  22  43 SW6       30.12F
FRONT RANGE AP CLEAR     45  27  49 SW7       30.12F
ERIE MUNI ARPT CLEAR     35  28  76 CALM      30.11S
BOULDER MUN AP CLEAR     43  27  52 SW5       30.10S
CENTENNIAL     CLEAR     40  22  48 SW7       30.12F
BROOMFIELD     CLEAR     43  27  52 W3        30.11F
FORT COLLINS   CLEAR     41  25  52 CALM      30.12S
LONGMONT       CLEAR     36  28  72 CALM      30.12F
$$

COZ041-046-047-076>085-087-088-301100-
...PIKES PEAK/PALMER DIVIDE AND SOUTHERN FOOTHILLS...

CITY           SKY/WX    TMP DP  RH WIND       PRES   REMARKS
COLO. SPRINGS  PTCLDY    33  22  63 NE8       30.18F WCI  26
A. F. ACADEMY  NOT AVBL
ELLICOTT       PTCLDY   N/A N/A N/A CALM      30.16F
FALCON         PTCLDY    31  20  63 W3        30.19F
FORT CARSON    CLEAR     37  25  62 NW10      30.15F
LIMON          CLEAR     30  21  69 NE5       30.15F WCI  25
MONUMENT HILL  CLEAR     32  19  59 S9        30.18S WCI  24
TRINIDAD       CLEAR     52  24  33 SW20      30.15F
$$

COZ042>045-048>051-090-091-301100-
...NORTHEAST COLORADO...

CITY           SKY/WX    TMP DP  RH WIND       PRES   REMARKS
GREELEY ARPT   CLEAR     30  14  51 NW3       30.10S
AKRON          CLEAR     45  22  40 SW13      30.09F
BURLINGTON     CLEAR     42  23  46 S13       30.12F
WRAY           CLEAR     44  25  46 SW14      30.09F
STERLING       CLEAR     36  27  69 S8        30.08F
HOLYOKE        NOT AVBL
FORT MORGAN    CLEAR     37  17  43 SW10      30.10F
$$

COZ086-089-092>099-301100-
...SOUTHEAST COLORADO...

CITY           SKY/WX    TMP DP  RH WIND       PRES   REMARKS
PUEBLO         CLEAR     36  24  62 NW7       30.14F
LA JUNTA       CLEAR     45  27  49 SW10      30.12F
LAMAR          CLEAR     42  26  53 CALM      30.10F
SPRINGFIELD      N/A     40  26  57 S5        30.16F
$$


USA.gov is the U.S. government's official web portal to all federal, state and local government web resources and services.